Showing default

CHINASAT 16, 42662

Orbit data source: Space-Track

CHINASAT 16, 42662 is a payload satellite owned by CAST (CN) in GEO that was launched on Wed, 12 Apr 2017 UTC via a CHANG ZHENG 3B launch vehicle from the Xichang Space Center, China (XSC). Payload-class satellites include a variety of spacecraft equipped with specific instruments for various scientific and technological missions. These include communications satellites like Starlink; space stations such as the ISS; scientific satellites like the Hubble; Earth observation satellites from companies like Planet Labs, Umbra, and HawkEye 360; GPS; miniature CubeSats for education and research; and military/defense satellites.

Not visible in the next 10 days
Identifier
42662, 2017-018A
Orbit
GEO
Country
Flag of CNCN / PRC
Related business
Manufacturer
CAST?
Mission
Operational Civil Communications
Bus & Motor
DFH-3B, LIPS-200
Mass
4,600 kg wet, ~2,500 kg dry
Launch date (UTC)
2017-04-12 (9 years ago)
Launch vehicle
CHANG ZHENG 3B
Launch site
Xichang Space Center, China (XSC)
Object type
Payload
Rocket body
Debris
Shape & HBR
Box + 2 Pan, 15.0 m
Radar Cross Section
34.063 m², Large (>1 m²)

Expand to show TLE details & history
Last TLE update: 15 hours ago

TLE from 15 hours ago
0 CHINASAT 16
1 42662U 17018A   26257.66835476 -.00000360  00000-0  00000-0 0  9994
2 42662   0.0772  92.8907 0006805 133.7509 118.1713  1.00275743 34648
Epoch: 2026-09-14T16:02Z
TLE epoch observation values (Epoch: 2026-09-14T16:02:25.851Z)
Latitude
-0.06915°
Longitude
110.62274°
Altitude
35,798.64 km
Speed
3.074 km/s
True Right ascension
22h 59m 30s
True Declination
0° 04' 09"
Sunlit
Object was in full shadow at epoch
Visualization orbit readout
Latitude
Unknown
Longitude
Unknown
Altitude
Unknown
Speed
Unknown
Apparent Right ascension
Unknown
Apparent Declination
Unknown
Sunlit
N/A
Visualization observer readout
Local Sidereal Time
23:26:40
Azimuth
Unknown
Elevation
Unknown
Doppler factor
Unknown
Orbital elements
Apogee altitude
35,815.249 km
Perigee altitude
35,757.863 km
Semi-major axis
42,164.693 km
Eccentricity
0.00068
Inclination
0.0772°
RAAN
92.8907°
Arg. of periapsis
133.7509°
True anomaly
118.24001°
Mean anomaly
118.1713°
Eccentric anomaly
118.20566°
Mean motion
0.25068 °/min
Orbital period
1,436.09 mins
BSTAR
0
Loading maneuver chart data...
Computing Atmospheric mass density...
Loading historical data...
Loading historical data...
Loading historical data...
Loading historical data...
Loading historical data...
Loading historical data...
Loading historical data...
Other satellites on launch #18 in the year 2017 (2017-04-12 UTC)

Documentation

Showing up to 5 results
|